Вернуться в каталог

USA 4

АктивенВоенныеHEO
NORAD 15226·PAYLOAD·🇺🇸 United States

Запущен Aug 28, 1984 с Vandenberg Space Force Base

Loading…

Ближайшие Пролёты (ближайшие 24 часа)

TLE

УстаревающийSource: Space-Track

Эпоха: Aug 22, 2026, 20:44 UTC

1 15226U 84091A   26234.86432034  .00000097  00000-0  00000-0 0  9991
2 15226  63.1972  78.7204 6590030 282.8691  15.6159  2.00681061 52056

Отслеживайте USA 4 в реальном времени с AllMySat

Download on the App Store